Location: Gloden
(48.4833°N, 15.3167°E)
Time: 03:46:00
(UTC+00:00)

Cosmos 1378 - Pass Details

Date: 15 December 2019
Orbit: 493 x 501 km, 82.5° (Epoch: 19 January)

Event Time Altitude Azimuth Distance (km) Brightness Sun altitude
Rises 05:34:26 0° 355° (N) 2,608 6.5 -10.8°
Reaches altitude 10° 05:36:37 10° 1° (N) 1,720 5.6 -10.5°
Maximum altitude 05:40:16 47° 76° (ENE) 677 4.2 -9.9°
Drops below altitude 10° 05:43:53 10° 152° (SSE) 1,707 6.7 -9.4°
Sets 05:46:03 0° 158° (SSE) 2,586 7.5 -9.1°
